This is the latest recevied weather packets stored in our database for station/object KC7UNY-13. If no packets are shown the sender has not sent any weather packets the latest 10 day(s).
| Time | Temp. | Humidity | Pressure | Rain* | Wind** | Luminosity | Snow |
|---|---|---|---|---|---|---|---|
| 1777928370 | 25.56° C | 38% | 1012.6 hPa | 0 mm | - | 212 W/m² | - |
| 1777928067 | 25.56° C | 39% | 1012.7 hPa | 0 mm | - | 211 W/m² | - |
| 1777927765 | 25.56° C | 38% | 1012.5 hPa | 0 mm | - | 234 W/m² | - |
| 1777927463 | 25.56° C | 39% | 1012.4 hPa | 0 mm | - | 266 W/m² | - |
| 1777927162 | 26.11° C | 37% | 1012.4 hPa | 0 mm | - | 330 W/m² | - |
| 1777926859 | 25.56° C | 38% | 1012.3 hPa | 0 mm | - | 335 W/m² | - |
| 1777926555 | 26.11° C | 38% | 1012.4 hPa | 0 mm | - | 325 W/m² | - |
| 1777926252 | 26.11° C | 38% | 1012.3 hPa | 0 mm | - | 339 W/m² | - |
| 1777925949 | 25.56° C | 38% | 1012.3 hPa | 0 mm | - | 412 W/m² | - |
| 1777925646 | 25.56° C | 38% | 1012.5 hPa | 0 mm | - | 360 W/m² | - |
| 1777925343 | 25.56° C | 38% | 1012.4 hPa | 0 mm | - | 286 W/m² | - |
| 1777925040 | 25.56° C | 38% | 1012.3 hPa | 0 mm | - | 259 W/m² | - |
| 1777924736 | 25.56° C | 39% | 1012.5 hPa | 0 mm | - | 213 W/m² | - |
| 1777924432 | 25.56° C | 38% | 1012.6 hPa | 0 mm | - | 213 W/m² | - |
| 1777924129 | 25.56° C | 38% | 1012.7 hPa | 0 mm | - | 276 W/m² | - |
| 1777923825 | 25.56° C | 38% | 1012.6 hPa | 0 mm | - | 304 W/m² | - |
| 1777923521 | 26.11° C | 38% | 1012.8 hPa | 0 mm | - | 273 W/m² | - |
| 1777923218 | 25.56° C | 38% | 1012.6 hPa | 0 mm | - | 284 W/m² | - |
| 1777922917 | 26.11° C | 38% | 1012.8 hPa | 0 mm | - | 381 W/m² | - |
| 1777922614 | 26.11° C | 38% | 1012.7 hPa | 0 mm | - | 398 W/m² | - |
| 1777922313 | 26.67° C | 37% | 1012.5 hPa | 0 mm | - | 411 W/m² | - |
| 1777922010 | 26.11° C | 37% | 1012.5 hPa | 0 mm | - | 450 W/m² | - |
| 1777921705 | 25.56° C | 37% | 1012.6 hPa | 0 mm | - | 472 W/m² | - |
| 1777921402 | 25.56° C | 37% | 1012.3 hPa | 0 mm | - | 325 W/m² | - |
| 1777921099 | 26.11° C | 38% | 1012.3 hPa | 0 mm | - | 350 W/m² | - |
* Rain latest hour (hover to see other rain measurements)
** Current wind speed in m/s (hover to see current wind gust speed)